Regional Weather Roundup
Issued by NWS

Home | Current Version | Previous Version | Text Only | Print | Product List | Glossary On
Versions: 1 2 3 4 5 6 7 8 9 10 11 12 13 14 15 16 17 18 19 20 21 22 23 24 25 26 27
000
ASUS42 KTBW 162317
RWRFL
FLORIDA REGIONAL WEATHER ROUNDUP
NATIONAL WEATHER SERVICE TAMPA BAY RUSKIN FL
700 PM EDT WED AUG 16 2017

NOTE: "FAIR" INDICATES FEW OR NO CLOUDS BELOW 12,000 FEET WITH NO
SIGNIFICANT WEATHER AND/OR OBSTRUCTIONS TO VISIBILITY.

FLZ001>010-012>015-112-114-115-170000-
PANHANDLE FLORIDA

CITY           SKY/WX    TMP DP  RH WIND       PRES   REMARKS
PENSACOLA      MOSUNNY   89  76  65 W8        30.04R HX 100
PENSACOLA NAS  PTSUNNY   87  75  67 SW6       30.03R HX  96
MILTON NAS     MOSUNNY   87  76  69 SW8       30.03  HX  97
CRESTVIEW      SUNNY     90  73  57 W6        30.03F HX  98
DUKE FIELD     MOSUNNY   87  76  70 S9        30.02S HX  97
VALPARAISO     MOSUNNY   88  75  66 SW8       30.03R HX  97
MARY ESTHER    MOSUNNY   87  72  61 SW7       30.02S
PANAMA CITY    FAIR      88  76  67 SW9       30.02S HX  99
TYNDALL AFB    SUNNY     88  76  67 W9        30.04R HX  99
APALACHICOLA   SUNNY     89  78  70 W12       30.03S HX 103

STATION/POSITION SKY/WX   TEMP    WIND        PRES    WAVE   SWELL
                          AIR SEA DIR/SP/G            HT/PER HT/PER
                          (F)     (DEG/KT/KT) (MB)    (FT/S) (FT/S)
30.1N   87.6W              86 89  240/  8/ 12 1016.7F   1/ 5   2/ 5
29.2N   88.2W              86 89  240/  6/  8 1017.5
28.8N   86.0W              89 89  240/  2/  4 1017.1S   1/ 4   2/ 4
PANAMA CITY BEAC           86     240/ 10/ 12 1017.3F
TOWER C                    86                 1017.8R
28.5N   84.5W              86 90  200/  2/  6 1017.2F   1

$$
FLZ011-016>038-118-127-128-134-139-239-170000-
NORTH FLORIDA

CITY           SKY/WX    TMP DP  RH WIND       PRES   REMARKS
MARIANNA       MOSUNNY   92  73  53 W3        30.01S HX 100
TALLAHASSEE    PTSUNNY   89  78  70 S9        30.01F HX 103
PERRY          CLOUDY   N/A N/A N/A SW5       30.04R THUNDER
LIVE OAK       SUNNY     91  73  55 CALM      30.03R HX 100
CROSS CITY     SUNNY     89  74  61 W9        30.08R HX  98
LAKE CITY      FAIR      90  73  58 SW5       30.02R HX  98
GAINESVILLE    MOSUNNY   86  76  71 SW6       30.05R HX  96
WILLISTON      SUNNY     91  81  70 S5        30.04R HX 110
PALATKA        FAIR      88  79  74 S8        30.03R HX 102
MAYPORT NAS    MOSUNNY   88  76  67 S13       30.01R HX  99
JACKSONVILLE   MOSUNNY   94  72  48 S5        29.99S HX 102
JAX NAS        PTSUNNY   91  78  65 E13       30.01R HX 106
JAX CECIL      PTSUNNY   91  75  59 NW6       30.00R HX 102
FERNANDINA BEA FAIR      88  77  70 S14       30.00R HX 100
ST AUGUSTINE   SUNNY     85  76  74 S8        30.03R
PALM COAST     SUNNY     82  79  89 SE6       30.05R

STATION/POSITION SKY/WX   TEMP    WIND        PRES    WAVE   SWELL
                          AIR SEA DIR/SP/G            HT/PER HT/PER
                          (F)     (DEG/KT/KT) (MB)    (FT/S) (FT/S)
SHELL POINT      NOT AVBL
KEATON BEACH               86     270/ 10/ 11 1016.8R
CEDAR KEY                  87     260/  5/  7 1017.5S
FERNANDINA                 91 83  140/ 10/ 15 1016.5F
30.7N   81.3W                 86                N/A     1/10
MAYPORT                    87 83  170/  9/ 14 1016.5R
31.4N   80.9W              86 86  170/ 12/ 14 1015.1F   1/ 9
ST AUGUSTINE               83 83  170/ 10/ 11 1017.0R

$$
FLZ040-043>046-052-053-057-058-063-144-170000-
INTERIOR CENTRAL FLORIDA

CITY           SKY/WX    TMP DP  RH WIND       PRES   REMARKS
OCALA          MOSUNNY   87  78  74 CALM      30.05R HX 100
THE VILLAGES     N/A     86  81  84 CALM      29.96R HX 102
LEESBURG       CLOUDY    83  78  85 SE7       30.07R
SANFORD        CLOUDY    81  77  88 S8        30.06S
ORLANDO EXEC   CLOUDY    81  74  79 S6        30.06F
ORLANDO INTL   CLOUDY    79  75  87 SE6       30.07S
KISSIMMEE      CLOUDY    79  76  90 SE5       30.08S
WINTER HAVEN   CLOUDY    82  75  79 SE7       30.08R
LAKELAND       MOSUNNY   86  73  66 W3        30.07R
BARTOW         FAIR      81  75  83 E7        30.08R
SEBRING        FAIR      82  71  68 NE3       30.08S
OKEECHOBEE     MOSUNNY   82  75  78 CALM      30.06S

$$
FLZ041-047-054-059-064-141-147-170000-
EAST CENTRAL FLORIDA

CITY           SKY/WX    TMP DP  RH WIND       PRES   REMARKS
ORMOND BEACH   MOSUNNY   82  75  78 S5        30.05R
DAYTONA BEACH  MOSUNNY   83  76  79 S6        30.06R
DELAND         CLOUDY    81  75  83 SW5       30.05S
NEW SMYRNA BEA PTSUNNY   84  75  74 SW3       30.06R
JFK SPACE CTR  CLOUDY    80  78  92 SW5       30.05F
TITUSVILLE     PTSUNNY   82  81  94 S5        30.07F HX  95
CAPE CANAVERAL DRIZZLE   77  73  88 W6        30.04F
PATRICK AFB    CLOUDY    80  74  83 NW5       30.06F
MELBOURNE      CLOUDY    79  74  84 W6        30.07F
VERO BEACH     PTSUNNY   87  75  67 NE5       30.06S HX  96
FT PIERCE      MOSUNNY   86  77  74 E7        30.05S HX  97
STUART         MOSUNNY   90  77  66 E5        30.07R HX 102

STATION/POSITION SKY/WX   TEMP    WIND        PRES    WAVE   SWELL
                          AIR SEA DIR/SP/G            HT/PER HT/PER
                          (F)     (DEG/KT/KT) (MB)    (FT/S) (FT/S)
28.5N   80.2W              86 87  220/ 10/ 12 1018.9R   1/10   2/10
28.9N   78.5W              86 87  240/  4/  6 1017.4
TRIDENT PIER               79 84  280/  7/  9 1019.2F
28.4N   80.5W                 83                N/A     1/ 8
27.5N   80.2W                 84                N/A     1/11

$$
FLZ050-056-061-142-242-148-248-149-249-151-251-155-255-
160-260-170000-
WEST CENTRAL FLORIDA

CITY           SKY/WX    TMP DP  RH WIND       PRES   REMARKS
CRYSTAL RIVER  FAIR      86  77  74 W5        30.05R HX  97
INVERNESS      FAIR      86  81  84 CALM      30.05R HX 102
BROOKSVILLE    MOSUNNY   90  73  57 W5        30.06R HX  98
CLEARWATER AIR FAIR      86  75  70 NW5       30.05S HX  95
ST PETE CLEARW MOSUNNY   90  74  59 N5        30.05R HX  99
TAMPA INTL     PTSUNNY   88  77  69 S3        30.05S HX 100
TAMPA EXEC     CLOUDY    90  73  58 CALM      30.06S HX  98
PLANT CITY     CLOUDY    86  79  79 CALM      30.08S HX  99
MACDILL AFB    PTSUNNY   88  79  73 CALM      30.05S HX 102
PETER O KNIGHT CLOUDY    90  79  70 CALM      30.05S HX 105
ST PETERSBURG  PTSUNNY   88  75  65 CALM      30.03S HX  97
SARASOTA       CLOUDY    88  74  63 N5        30.03S HX  96
VENICE         PTSUNNY   90  77  66 NW6       30.05S HX 102

STATION/POSITION SKY/WX   TEMP    WIND        PRES    WAVE   SWELL
                          AIR SEA DIR/SP/G            HT/PER HT/PER
                          (F)     (DEG/KT/KT) (MB)    (FT/S) (FT/S)
CLEARWATER BEACH           88 92  340/  3/  5 1017.8R
MIDDLE TAMPA BAY           88     330/  5/  7 1017.7S
VENICE                     88 91  330/  6/  7 1017.7S

$$
FLZ066-069-070-075>078-162-262-165-265-170000-
SOUTHWEST FLORIDA AND KEYS

CITY           SKY/WX    TMP DP  RH WIND       PRES   REMARKS
PUNTA GORDA    CLOUDY    83  74  74 N5        30.06F
FT MYERS       CLOUDY    82  78  88 CALM      30.04F
SOUTHWEST INTL CLOUDY    82  76  81 E5        30.05F
NAPLES         CLOUDY    80  77  90 NE5       30.04F
MARCO ISLAND   CLOUDY    79  77  94 E5        30.06S
IMMOKALEE      FAIR      81  75  83 CALM      30.07S
MARATHON       SUNNY     88  78  72 E8        30.03R HX 101
KEY WEST NAS   MOSUNNY   88  76  67 E8        30.03S HX  99
KEY WEST INTL  SUNNY     88  76  67 E9        30.03S HX  99

STATION/POSITION SKY/WX   TEMP    WIND        PRES    WAVE   SWELL
                          AIR SEA DIR/SP/G            HT/PER HT/PER
                          (F)     (DEG/KT/KT) (MB)    (FT/S) (FT/S)
NAPLES                        93   80/  3/  5 1017.5F
DRY TORTUGAS               88      80/  9/ 10 1017.2R
SAND KEY                   86     100/ 10/ 12 1017.5R
MOLASSES REEF              86 88  100/ 10/ 11 1017.2F

$$
FLZ067-068-071>074-168-172>174-170000-
SOUTHEAST FLORIDA

CITY           SKY/WX    TMP DP  RH WIND       PRES   REMARKS
W PALM BEACH   MOSUNNY   88  73  61 E5        30.06R HX  95
BOCA RATON     SUNNY     88  75  66 SE6       30.06R HX  97
FT LAUDER-EXEC MOSUNNY   88  75  65 SE6       30.05R HX  97
FT LAUDERDALE  MOSUNNY   88  74  63 SE9       30.04R HX  96
POMPANO BEACH  MOSUNNY   89  75  63 SE7       30.05R HX  99
PEMBROKE PINES SUNNY     90  73  57 E8        30.05R HX  98
OPA LOCKA      SUNNY     89  73  59 E8        30.04R HX  97
MIAMI          MOSUNNY   89  71  55 SE9       30.04S HX  95
WEST KENDALL   SUNNY     89  71  55 E8        30.04R HX  95
HOMESTEAD      SUNNY     89  79  72 E8        30.03S HX 103

STATION/POSITION SKY/WX   TEMP    WIND        PRES    WAVE   SWELL
                          AIR SEA DIR/SP/G            HT/PER HT/PER
                          (F)     (DEG/KT/KT) (MB)    (FT/S) (FT/S)
PORT EVERGLADES            87     140/  6/  8 1017.5R
VIRGINIA KEY               87 91   90/  5/  8 1017.0S
LAKE WORTH                         80/  4/  4   N/A
FOWEY ROCKS                86 88   90/  7/  8 1017.9R
SETTLEMENT POINT           86     160/  6/  7 1018.1R

$$





USA.gov is the U.S. government's official web portal to all federal, state and local government web resources and services.